[[{"header":{"parameterUnit":"m.s-1","parameterCategory":1,"la1":30.2991,"la2":30.254,"lo1":-89.0895,"lo2":-89.0444,"dy":0.0017,"dx":0.0017,"nx":28,"ny":28,"refTime":"2024-08-17T09:00:00:Z","depth":0,"parameterNumber":2,"parameterNumberName":"U-component_of_WINDS"},"data":[0,0,0,0,0,0,0,0,0,0,0,0,0,0,0,0,0,0,0,0,0,0,0,0,0,0,0,0,0,0,0,0,0,0,0,0,0,0,0,0,0,0,0,0,0,0,0,0,0,0,0,0,0,0,0,0,0,0,3.473,3.4731,0,3.4778,3.4778,3.4779,3.473,3.4728,3.4726,3.4725,3.4771,3.4774,3.4777,0,0,0,0,0,0,0,0,0,0,0,0,0,3.4595,3.4598,3.473,3.4731,3.4731,3.4777,3.4778,3.4779,3.4731,3.4728,3.4726,3.4724,3.477,3.4774,3.4778,0,0,0,0,0,0,0,0,0,0,0,0,0,3.4649,3.4599,3.473,3.4713,3.4712,3.4777,3.4778,3.4779,3.4731,3.4728,3.4725,3.4723,3.4769,3.4774,3.4778,3.4862,0,0,3.4792,3.4794,0,0,0,0,0,0,0,0,3.4646,3.4654,3.4715,3.4714,3.4713,3.4745,3.4748,3.4807,3.4732,3.4724,3.4725,3.4721,3.4765,3.477,3.4785,3.4864,3.4866,3.4792,3.4795,3.4797,3.4798,0,0,0,0,0,0,0,3.4643,3.4652,3.4749,3.4716,3.4715,3.4702,3.4706,3.4759,3.4759,3.4724,3.4721,3.4727,3.4764,3.478,3.4785,3.4867,3.4792,3.4796,3.4799,3.4801,3.5015,3.5018,0,0,0,0,0,0,3.4641,3.4649,3.4747,3.475,3.4672,3.4707,3.4712,3.4738,3.4759,3.4759,3.473,3.4725,3.4774,3.478,3.4787,3.4884,3.4797,3.4801,3.4804,3.5012,3.5015,3.5019,0,0,0,0,0,0,3.4638,3.465,3.4745,3.4699,3.471,3.4712,3.4741,3.474,3.4756,3.4763,3.4762,3.4746,3.4772,3.478,3.4843,3.4885,3.4803,3.4807,3.5008,3.5013,3.5017,3.508,0,0,0,0,0,0,3.4635,3.465,3.4682,3.47,3.4713,3.4802,3.4744,3.4743,3.4765,3.4759,3.4778,3.4779,3.477,3.4837,3.4848,3.4889,3.4811,3.5004,3.501,3.5016,3.5074,3.5086,3.5096,0,0,0,0,0,3.463,3.4699,3.4684,3.4697,3.4754,3.4805,3.4812,3.4801,3.4768,3.48,3.4804,3.4778,3.4879,3.4844,3.4855,3.4899,3.5002,3.5009,3.5015,3.5069,3.5084,3.5096,0,0,0,0,0,0,3.4686,3.4701,3.4685,3.4762,3.4782,3.4796,3.4837,3.4817,3.4847,3.484,3.4825,3.483,3.4896,3.4904,3.4864,3.498,3.4935,3.4944,3.4972,3.4986,3.4997,3.4992,3.4814,0,0,0,0,0,3.4708,3.4748,3.4759,3.4825,3.4836,3.4835,3.4857,3.4847,3.4867,3.4875,3.4884,3.4904,3.494,3.4964,3.4997,3.5076,3.5078,3.5112,3.5123,3.5132,3.5139,3.5178,3.5192,3.5041,3.5041,3.504,0,0,3.4752,3.4765,3.4792,3.4837,3.4852,3.4892,3.4843,3.4889,3.4918,3.4882,3.4941,3.4948,3.497,3.504,3.5071,3.5048,3.5182,3.514,3.5148,3.515,3.5186,3.5201,3.5213,3.5045,3.5044,3.5044,0,0,3.4853,3.4868,3.4924,3.4939,3.4962,3.496,3.4974,3.4991,3.4994,3.5053,3.5025,3.506,3.5123,3.5139,3.5155,3.526,3.5236,3.5271,3.5328,3.5366,3.5378,3.5388,3.5423,3.5435,3.5279,3.528,3.528,0,3.4905,3.4966,3.4955,3.5002,3.5021,3.4991,3.5045,3.5061,3.5094,3.5107,3.5082,3.5158,3.5171,3.5242,3.5268,3.5283,3.5296,3.5268,3.5377,3.5388,3.5397,3.543,3.5443,3.5283,3.5283,3.5283,3.5282,0,3.5027,3.507,3.5112,3.5143,3.5168,3.5219,3.5213,3.524,3.5227,3.5228,3.5287,3.5301,3.5335,3.5352,3.5341,3.5421,3.5406,3.538,3.5333,3.5416,3.5446,3.5458,3.5289,3.5288,3.5286,3.5285,0,0,3.5164,3.5187,3.5203,3.5215,3.5238,3.527,3.5319,3.5352,3.5373,3.5397,3.5435,3.5489,3.5464,3.5482,3.5472,3.5506,3.5584,3.5475,3.5475,3.5492,3.567,3.5687,3.5702,3.557,3.5572,3.5574,3.5667,0,3.5263,3.5347,3.5337,3.5417,3.5455,3.5426,3.5468,3.5485,3.5487,3.5518,3.552,3.5557,3.5523,3.5533,3.5565,3.5568,3.5619,3.5561,3.5603,3.5605,3.5595,3.5718,3.5737,3.5824,3.5679,3.5681,3.5682,0,3.5389,3.5416,3.55,3.5513,3.5529,3.5567,3.5595,3.5627,3.5645,3.5644,3.5664,3.5647,3.5694,3.5649,3.5712,3.5673,3.569,3.5693,3.5696,3.5697,3.5646,3.5719,3.5852,3.5864,3.5701,3.57,3.5699,0,3.5476,3.5534,3.559,3.5602,3.5621,3.5648,3.5657,3.5672,3.5692,3.5717,3.573,3.576,3.5776,3.58,3.5791,3.576,3.5855,3.581,3.5852,3.5853,3.5871,3.587,3.6006,3.5888,3.5888,3.5888,3.5887,0,3.5585,3.5637,3.5629,3.5663,3.5719,3.5707,3.5763,3.5768,3.5782,3.5816,3.5794,3.5826,3.5814,3.5845,3.5839,3.589,3.5899,3.5897,3.5894,3.5897,3.5897,3.5906,3.5898,3.5891,3.589,3.589,3.5889,0,3.5691,3.5688,3.5747,3.576,3.5764,3.5804,3.5814,3.5846,3.5846,3.5889,3.5898,3.5897,3.5932,3.5927,3.5967,3.5962,3.6025,3.6016,3.6018,3.6015,3.6057,3.6052,3.62,3.6218,3.6092,3.6093,3.6094,0,3.5759,3.5798,3.5814,3.5835,3.5846,3.588,3.59,3.589,3.5911,3.5934,3.5962,3.5995,3.602,3.6078,3.608,3.6109,3.6099,3.6149,3.6103,3.6104,3.6096,3.6092,3.6094,3.6157,3.6159,3.616,3.6161,0,3.588,3.5876,3.5906,3.5935,3.5959,3.5981,3.6001,3.6019,3.601,3.6035,3.6071,3.609,3.613,3.6162,3.6189,3.6197,3.6176,3.6176,3.6186,3.6188,3.6186,3.6184,3.6039,3.6172,3.6171,3.617,3.6169,3.6169,3.5967,3.5998,3.6014,3.6047,3.6061,3.6079,3.6109,3.6112,3.6141,3.6172,3.6164,3.6203,3.6219,3.6253,3.6264,3.6293,3.6274,3.6291,3.6295,3.6298,3.6301,3.6184,3.6299,3.6298,3.6298,3.6298,3.6298,0,3.6083,3.6091,3.6122,3.615,3.6175,3.6155,3.6176,3.6198,3.6233,3.6249,3.6274,3.6313,3.6344,3.6349,3.6377,3.64,3.6391,3.6407,3.6404,3.6405,3.6318,3.6304,3.6414,3.6414,3.6414,3.6413,3.6413,3.6413,3.6146,3.6198,3.6195,3.6253,3.6261,3.6299,3.6311,3.6328,3.634,3.6385,3.641,3.6413,3.6424,3.6453,3.6479,3.648,3.649,3.6509,3.6506,3.6424,3.6412,3.6401,3.6387,3.6512,3.6512,3.6589,3.659,3.6591]},{"header":{"parameterUnit":"m.s-1","parameterCategory":1,"la1":30.2991,"la2":30.254,"lo1":-89.0895,"lo2":-89.0444,"dy":0.0017,"dx":0.0017,"nx":28,"ny":28,"refTime":"2024-08-17T09:00:00:Z","depth":0,"parameterNumber":3,"parameterNumberName":"V-component_of_WINDS"},"data":[0,0,0,0,0,0,0,0,0,0,0,0,0,0,0,0,0,0,0,0,0,0,0,0,0,0,0,0,0,0,0,0,0,0,0,0,0,0,0,0,0,0,0,0,0,0,0,0,0,0,0,0,0,0,0,0,0,0,3.6673,3.6674,0,3.6827,3.6829,3.683,3.6829,3.6827,3.6825,3.6823,3.6974,3.6979,3.6985,0,0,0,0,0,0,0,0,0,0,0,0,0,3.6368,3.6374,3.6672,3.6674,3.6676,3.6827,3.6829,3.6831,3.6829,3.6827,3.6824,3.6822,3.6972,3.6979,3.6986,0,0,0,0,0,0,0,0,0,0,0,0,0,3.6509,3.6376,3.6672,3.6694,3.6697,3.6826,3.6829,3.6831,3.683,3.6826,3.6823,3.6821,3.6969,3.6978,3.6987,3.7102,0,0,3.7014,3.7018,0,0,0,0,0,0,0,0,3.6501,3.652,3.6689,3.6692,3.6697,3.6806,3.6777,3.6922,3.683,3.6779,3.6823,3.6819,3.692,3.6932,3.6968,3.7109,3.7116,3.7015,3.702,3.7024,3.7026,0,0,0,0,0,0,0,3.6491,3.6514,3.6733,3.6691,3.6696,3.6693,3.671,3.6804,3.6864,3.6783,3.6784,3.6802,3.6921,3.6959,3.6971,3.7118,3.7014,3.7022,3.7028,3.7031,3.7359,3.7363,0,0,0,0,0,0,3.6478,3.6505,3.6728,3.6738,3.659,3.6701,3.672,3.6774,3.6863,3.6874,3.6805,3.6802,3.6946,3.6961,3.6977,3.7117,3.7024,3.7032,3.7037,3.7356,3.736,3.7364,0,0,0,0,0,0,3.6472,3.6498,3.6722,3.6622,3.665,3.671,3.677,3.6778,3.6816,3.688,3.6889,3.6833,3.6944,3.6964,3.7071,3.7122,3.7036,3.7044,3.7352,3.7357,3.7362,3.7398,0,0,0,0,0,0,3.6463,3.6496,3.6542,3.6623,3.6656,3.6817,3.6773,3.6783,3.6833,3.683,3.6909,3.6919,3.6943,3.7058,3.708,3.7133,3.7051,3.7348,3.7354,3.736,3.7393,3.7404,3.7414,0,0,0,0,0,3.6452,3.6545,3.6545,3.6572,3.6716,3.682,3.6838,3.6866,3.6837,3.6883,3.6923,3.6916,3.7113,3.7069,3.7094,3.715,3.7345,3.7352,3.736,3.7388,3.7402,3.7413,0,0,0,0,0,0,3.6467,3.6556,3.6557,3.6679,3.6742,3.6819,3.6878,3.688,3.695,3.6945,3.6974,3.6992,3.7098,3.7134,3.7084,3.7265,3.7225,3.7238,3.7238,3.7251,3.7261,3.725,3.7058,0,0,0,0,0,3.6485,3.6565,3.6637,3.6738,3.677,3.6819,3.6865,3.6881,3.6946,3.6972,3.702,3.7082,3.7157,3.7206,3.7279,3.7398,3.7414,3.7448,3.7459,3.7467,3.7478,3.7541,3.7557,3.7389,3.7389,3.7389,0,0,3.6522,3.6581,3.6629,3.6743,3.6793,3.6872,3.6841,3.6926,3.6985,3.6984,3.7089,3.7126,3.7196,3.7309,3.7361,3.7343,3.7528,3.7477,3.7483,3.7489,3.7551,3.7567,3.7581,3.7394,3.7393,3.7392,0,0,3.663,3.6684,3.6773,3.6825,3.6902,3.6934,3.6955,3.7032,3.7057,3.7163,3.7164,3.7232,3.7362,3.7412,3.7454,3.7579,3.7575,3.7601,3.7656,3.7717,3.7731,3.7742,3.7786,3.7801,3.7612,3.7612,3.7612,0,3.6666,3.6788,3.6818,3.6905,3.6953,3.6959,3.7048,3.7095,3.7192,3.7224,3.7202,3.7365,3.7412,3.7536,3.7567,3.7601,3.7624,3.7593,3.7727,3.7739,3.775,3.7792,3.7808,3.7615,3.7614,3.7614,3.7614,0,3.6828,3.6912,3.6974,3.707,3.7125,3.7212,3.7253,3.7305,3.7316,3.7349,3.7455,3.7512,3.7596,3.7626,3.7637,3.7751,3.7737,3.7721,3.7681,3.7769,3.7808,3.7824,3.7619,3.7618,3.7617,3.7616,0,0,3.695,3.7061,3.7083,3.7126,3.7211,3.7275,3.7361,3.7446,3.7489,3.7555,3.7626,3.7735,3.772,3.7768,3.7784,3.7838,3.7932,3.7815,3.7816,3.7833,3.8059,3.8071,3.8089,3.7929,3.7933,3.7935,3.8053,0,3.7067,3.7223,3.7252,3.7386,3.7463,3.7468,3.7543,3.7601,3.7634,3.7702,3.7736,3.7813,3.7788,3.7817,3.7871,3.7909,3.7977,3.7901,3.7994,3.7997,3.7976,3.811,3.8123,3.8231,3.8068,3.8071,3.8073,0,3.7225,3.7296,3.7439,3.7513,3.7546,3.7613,3.7692,3.7757,3.7823,3.7842,3.7895,3.7905,3.7991,3.7947,3.8065,3.8012,3.8052,3.8076,3.808,3.809,3.804,3.8122,3.8266,3.8282,3.8098,3.8096,3.8094,0,3.7298,3.743,3.7533,3.7569,3.7658,3.7704,3.7743,3.7806,3.7854,3.7922,3.7953,3.8029,3.807,3.8127,3.8155,3.8121,3.8271,3.823,3.8287,3.8287,3.8319,3.8316,3.8471,3.8345,3.8345,3.8344,3.8344,0,3.7426,3.7512,3.7567,3.763,3.7726,3.7757,3.7851,3.7888,3.7944,3.8012,3.802,3.8082,3.8117,3.8184,3.8206,3.8299,3.8318,3.8334,3.8339,3.8334,3.8331,3.8359,3.8352,3.8349,3.8348,3.8347,3.8346,0,3.7525,3.7565,3.7677,3.7752,3.7773,3.784,3.7903,3.7963,3.7995,3.8081,3.8102,3.8151,3.8231,3.8265,3.8362,3.8377,3.8483,3.8483,3.8462,3.8464,3.8519,3.8513,3.8697,3.8722,3.858,3.8581,3.8582,0,3.7603,3.767,3.7753,3.78,3.7841,3.7917,3.7966,3.7998,3.8049,3.8128,3.8177,3.8257,3.8323,3.8449,3.8491,3.8565,3.8566,3.8625,3.8577,3.8569,3.8565,3.8561,3.8567,3.8634,3.8635,3.8636,3.8637,0,3.7738,3.7754,3.7827,3.7906,3.7966,3.8029,3.8091,3.8128,3.8169,3.8225,3.8307,3.8358,3.8458,3.8536,3.8613,3.8649,3.8649,3.8652,3.8669,3.8664,3.8649,3.8657,3.8485,3.8648,3.8647,3.8646,3.8645,3.8645,3.7828,3.7888,3.7955,3.8035,3.8085,3.8142,3.8202,3.8242,3.8312,3.8397,3.841,3.8498,3.8559,3.8662,3.8701,3.8768,3.8753,3.8778,3.8784,3.879,3.8793,3.8639,3.8782,3.8781,3.8781,3.8781,3.8781,0,3.7962,3.8006,3.8079,3.8166,3.8228,3.8225,3.8293,3.8344,3.8422,3.8481,3.8545,3.8639,3.8715,3.8763,3.8839,3.8883,3.8885,3.8901,3.8898,3.8906,3.8802,3.878,3.8899,3.8899,3.8899,3.8899,3.8899,3.8898,3.8039,3.814,3.8164,3.8287,3.8329,3.8417,3.8456,3.8508,3.8554,3.8659,3.8723,3.8755,3.8809,3.8888,3.8956,3.8968,3.8995,3.9013,3.9024,3.8926,3.8914,3.8902,3.8881,3.9019,3.9019,3.9122,3.9123,3.9124]}]]